When you browse on this site, cookies collect data to enhance your experience and personalize the content and advertising you see.
Visit our Privacy Policy to learn more. By continuing to use the site, you agree to this use of cookies and data.
  • In Spain
  • List of Countries
  • For 7 days
  • Water Temperature
  • Satellite Maps
  • Weather Map
  • Weather Widgets
  • user-avatar
    Login

    Hourly Weather Kaolak

    Today, 22 May, Wednesday

    Time Temperature Precipitation Wind Pressure Humidity
    00:00 +33°C° 0 mm 7 mps 732 mmHg 51%
    01:00 +33°C° 0 mm 6 mps 732 mmHg 48%
    02:00 +32°C° 0 mm 5 mps 731 mmHg 49%
    03:00 +32°C° 0 mm 4 mps 731 mmHg 49%
    04:00 +32°C° 0 mm 4 mps 731 mmHg 49%
    05:00 +32°C° 0 mm 4 mps 731 mmHg 47%
    06:00 +33°C° 0 mm 4 mps 731 mmHg 44%
    07:00 +33°C° 0 mm 5 mps 731 mmHg 42%
    08:00 +35°C° 0 mm 4 mps 732 mmHg 36%
    09:00 +38°C° 0 mm 4 mps 732 mmHg 31%
    10:00 +41°C° 0 mm 4 mps 732 mmHg 26%
    11:00 +43°C° 0 mm 3 mps 732 mmHg 21%
    12:00 +44°C° 0 mm 3 mps 732 mmHg 16%
    13:00 +46°C° 0 mm 3 mps 731 mmHg 11%
    14:00 +46°C° 0 mm 3 mps 731 mmHg 10%
    15:00 +47°C° 0 mm 4 mps 730 mmHg 9%
    16:00 +47°C° 0 mm 4 mps 730 mmHg 8%
    17:00 +44°C° 0 mm 4 mps 730 mmHg 12%
    18:00 +42°C° 0 mm 4 mps 730 mmHg 16%
    19:00 +39°C° 0 mm 3 mps 730 mmHg 21%
    20:00 +38°C° 0 mm 4 mps 730 mmHg 26%
    21:00 +37°C° 0 mm 4 mps 730 mmHg 32%
    22:00 +37°C° 0 mm 4 mps 731 mmHg 37%
    23:00 +36°C° 0 mm 4 mps 731 mmHg 38%

    Tomorrow, 23 May, Thursday

    Time Temperature Precipitation Wind Pressure Humidity
    00:00 +35°C° 0 mm 3 mps 730 mmHg 38%
    01:00 +35°C° 0 mm 3 mps 730 mmHg 38%
    02:00 +34°C° 0 mm 3 mps 730 mmHg 38%
    03:00 +34°C° 0 mm 3 mps 730 mmHg 38%
    04:00 +33°C° 0 mm 3 mps 729 mmHg 38%
    05:00 +34°C° 0 mm 3 mps 730 mmHg 37%
    06:00 +34°C° 0 mm 3 mps 730 mmHg 35%
    07:00 +34°C° 0 mm 3 mps 731 mmHg 33%
    08:00 +37°C° 0 mm 3 mps 731 mmHg 28%
    09:00 +39°C° 0 mm 2 mps 731 mmHg 22%
    10:00 +41°C° 0 mm 2 mps 732 mmHg 17%
    11:00 +43°C° 0 mm 2 mps 731 mmHg 13%
    12:00 +45°C° 0 mm 2 mps 731 mmHg 9%
    13:00 +47°C° 0 mm 2 mps 730 mmHg 5%
    14:00 +47°C° 0 mm 3 mps 729 mmHg 5%
    15:00 +47°C° 0 mm 3 mps 729 mmHg 4%
    16:00 +47°C° 0 mm 3 mps 728 mmHg 3%
    17:00 +43°C° 0 mm 2 mps 728 mmHg 4%
    18:00 +41°C° 0 mm 2 mps 728 mmHg 6%
    19:00 +37°C° 0 mm 1 mps 728 mmHg 7%
    20:00 +37°C° 0 mm 2 mps 729 mmHg 14%
    21:00 +37°C° 0 mm 3 mps 729 mmHg 20%
    22:00 +36°C° 0 mm 4 mps 730 mmHg 27%
    23:00 +36°C° 0 mm 4 mps 729 mmHg 27%

    Day after tomorrow, 24 May, Friday

    Time Temperature Precipitation Wind Pressure Humidity
    00:00 +35°C° 0 mm 4 mps 729 mmHg 26%
    01:00 +35°C° 0 mm 4 mps 729 mmHg 26%
    02:00 +34°C° 0 mm 4 mps 729 mmHg 25%
    03:00 +34°C° 0 mm 3 mps 729 mmHg 23%
    04:00 +33°C° 0 mm 3 mps 728 mmHg 22%
    05:00 +34°C° 0 mm 3 mps 729 mmHg 20%
    06:00 +34°C° 0 mm 3 mps 729 mmHg 18%
    07:00 +35°C° 0 mm 3 mps 730 mmHg 16%
    08:00 +38°C° 0 mm 3 mps 730 mmHg 13%
    09:00 +40°C° 0 mm 2 mps 730 mmHg 10%
    10:00 +43°C° 0 mm 2 mps 731 mmHg 6%
    11:00 +45°C° 0 mm 2 mps 730 mmHg 5%
    12:00 +47°C° 0 mm 2 mps 730 mmHg 4%
    13:00 +48°C° 0 mm 3 mps 729 mmHg 3%
    14:00 +48°C° 0 mm 3 mps 729 mmHg 3%
    15:00 +48°C° 0 mm 3 mps 728 mmHg 3%
    16:00 +48°C° 0 mm 3 mps 727 mmHg 3%
    17:00 +45°C° 0 mm 2 mps 728 mmHg 3%
    18:00 +41°C° 0 mm 1 mps 728 mmHg 4%
    19:00 +37°C° 0 mm 1 mps 728 mmHg 5%
    20:00 +38°C° 0 mm 2 mps 728 mmHg 7%
    21:00 +37°C° 0 mm 3 mps 729 mmHg 9%
    22:00 +37°C° 0 mm 4 mps 729 mmHg 11%
    23:00 +36°C° 0 mm 4 mps 729 mmHg 11%

    25 May, Saturday

    Time Temperature Precipitation Wind Pressure Humidity
    00:00 +36°C° 0 mm 3 mps 729 mmHg 11%
    01:00 +35°C° 0 mm 3 mps 728 mmHg 10%
    02:00 +35°C° 0 mm 3 mps 728 mmHg 10%
    03:00 +34°C° 0 mm 3 mps 728 mmHg 10%
    04:00 +34°C° 0 mm 3 mps 728 mmHg 10%
    05:00 +35°C° 0 mm 3 mps 729 mmHg 9%
    06:00 +36°C° 0 mm 2 mps 730 mmHg 9%
    07:00 +37°C° 0 mm 2 mps 730 mmHg 8%
    08:00 +39°C° 0 mm 2 mps 731 mmHg 8%
    09:00 +43°C° 0 mm 3 mps 731 mmHg 7%
    10:00 +45°C° 0 mm 3 mps 731 mmHg 6%
    11:00 +45°C° 0 mm 4 mps 731 mmHg 8%
    12:00 +46°C° 0 mm 5 mps 730 mmHg 10%
    13:00 +47°C° 0 mm 6 mps 730 mmHg 13%
    14:00 +47°C° 0 mm 6 mps 729 mmHg 13%
    15:00 +47°C° 0 mm 5 mps 729 mmHg 13%
    16:00 +47°C° 0 mm 5 mps 729 mmHg 13%
    17:00 +45°C° 0 mm 5 mps 729 mmHg 16%
    18:00 +43°C° 0 mm 5 mps 729 mmHg 18%
    19:00 +41°C° 0 mm 5 mps 729 mmHg 21%
    20:00 +40°C° 0 mm 4 mps 730 mmHg 23%
    21:00 +40°C° 0 mm 4 mps 730 mmHg 26%
    22:00 +38°C° 0 mm 4 mps 730 mmHg 28%
    23:00 +37°C° 0 mm 4 mps 730 mmHg 28%

    26 May, Sunday

    Time Temperature Precipitation Wind Pressure Humidity
    00:00 +36°C° 0 mm 4 mps 729 mmHg 29%
    01:00 +36°C° 0 mm 4 mps 729 mmHg 29%
    02:00 +35°C° 0 mm 4 mps 729 mmHg 29%
    03:00 +35°C° 0 mm 4 mps 729 mmHg 30%
    04:00 +34°C° 0 mm 4 mps 729 mmHg 30%
    05:00 +35°C° 0 mm 5 mps 729 mmHg 31%
    06:00 +35°C° 0 mm 5 mps 730 mmHg 31%
    07:00 +36°C° 0 mm 6 mps 730 mmHg 32%
    08:00 +39°C° 0 mm 7 mps 730 mmHg 28%
    09:00 +43°C° 0 mm 7 mps 731 mmHg 23%
    10:00 +46°C° 0 mm 8 mps 731 mmHg 18%
    11:00 +47°C° 0 mm 7 mps 730 mmHg 16%
    12:00 +47°C° 0 mm 5 mps 730 mmHg 14%
    13:00 +48°C° 0 mm 4 mps 729 mmHg 11%
    14:00 +47°C° 0 mm 3 mps 728 mmHg 11%
    15:00 +47°C° 0 mm 2 mps 728 mmHg 10%
    16:00 +46°C° 0 mm 1 mps 727 mmHg 9%
    17:00 +45°C° 0 mm 2 mps 728 mmHg 13%
    18:00 +43°C° 0 mm 4 mps 728 mmHg 16%
    19:00 +42°C° 0 mm 5 mps 728 mmHg 20%
    20:00 +41°C° 0 mm 5 mps 728 mmHg 23%
    21:00 +40°C° 0 mm 5 mps 728 mmHg 26%
    22:00 +39°C° 0 mm 5 mps 728 mmHg 29%
    23:00 +37°C° 0 mm 5 mps 728 mmHg 28%

    27 May, Monday

    Time Temperature Precipitation Wind Pressure Humidity
    00:00 +37°C° 0 mm 5 mps 728 mmHg 27%
    01:00 +36°C° 0 mm 5 mps 727 mmHg 26%
    02:00 +36°C° 0 mm 4 mps 727 mmHg 24%
    03:00 +36°C° 0 mm 4 mps 728 mmHg 22%
    04:00 +35°C° 0 mm 4 mps 728 mmHg 21%
    05:00 +35°C° 0 mm 5 mps 728 mmHg 29%
    06:00 +35°C° 0 mm 6 mps 729 mmHg 37%
    07:00 +35°C° 0 mm 7 mps 730 mmHg 46%
    08:00 +38°C° 0 mm 7 mps 730 mmHg 41%
    09:00 +40°C° 0 mm 8 mps 730 mmHg 36%
    10:00 +43°C° 0 mm 8 mps 731 mmHg 31%
    11:00 +44°C° 0 mm 8 mps 730 mmHg 29%
    12:00 +45°C° 0 mm 8 mps 730 mmHg 26%
    13:00 +46°C° 0 mm 8 mps 729 mmHg 24%
    14:00 +46°C° 0 mm 8 mps 729 mmHg 24%
    15:00 +46°C° 0 mm 8 mps 728 mmHg 24%
    16:00 +45°C° 0 mm 7 mps 727 mmHg 24%
    17:00 +44°C° 0 mm 7 mps 728 mmHg 26%
    18:00 +42°C° 0 mm 6 mps 728 mmHg 28%
    19:00 +41°C° 0 mm 6 mps 728 mmHg 31%
    20:00 +40°C° 0 mm 5 mps 729 mmHg 32%
    21:00 +39°C° 0 mm 5 mps 729 mmHg 34%
    22:00 +38°C° 0 mm 4 mps 729 mmHg 35%
    23:00 +37°C° 0 mm 4 mps 729 mmHg 35%
    Show more